User: anonymous   Login
Location: Edmonton
(53.5500°N, 113.5000°W)
Time: 07:12:01
(UTC-06:00)
Language:

CZ-4C R/B - Orbit

View from above orbital plane
View from above orbital plane
View from above satellite
View from above satellite

Ground track
Ground track

The orbit data is extracted from the following two-line orbital elements,

1 36416U 10009D   15186.82636988 -.00000077  00000-0  15841-4 0  9999
2 36416 063.4465 013.0734 0316914 358.7187 001.3006 13.69470668266814
Epoch (UTC): 05 July 2015 19:49:58
Eccentricity: 0.0316914
inclination: 63.4465°
perigee height: 767 km
apogee height: 1235 km
right ascension of ascending node: 13.0734°
argument of perigee: 358.7187°
revolutions per day: 13.69470668
mean anomaly at epoch: 1.3006°
orbit number at epoch: 26681

The dashed part of the orbit path shows where the satellite is in the earth's shadow,  

DLR